• In Deutschland
  • Länderverzeichnis
  • Für 7 Tage
  • Wassertemperatur
  • Satellitenkarten
  • Wetterkarte
  • Widgets
  • user-avatar
    Anmelden

    Stündliche Wetter Janina

    Heute, 22 Oktober, Montag

    Zeit Temperatur Niederschläge Wind Luftdruck Luftfeuchtigkeit
    00:00 +12°C° 0.1 mm 2 m/S 687 mmHg 89%
    01:00 +10°C° 0.1 mm 2 m/S 687 mmHg 90%
    02:00 +10°C° 0.1 mm 2 m/S 687 mmHg 90%
    03:00 +10°C° 0.1 mm 2 m/S 687 mmHg 90%
    04:00 +10°C° 0.1 mm 2 m/S 687 mmHg 90%
    05:00 +10°C° 0 mm 2 m/S 687 mmHg 88%
    06:00 +10°C° 0 mm 2 m/S 687 mmHg 87%
    07:00 +10°C° 0 mm 2 m/S 687 mmHg 85%
    08:00 +12°C° 0 mm 2 m/S 687 mmHg 80%
    09:00 +12°C° 0 mm 3 m/S 687 mmHg 75%
    10:00 +13°C° 0 mm 3 m/S 688 mmHg 70%
    11:00 +13°C° 0.4 mm 3 m/S 687 mmHg 71%
    12:00 +13°C° 0.4 mm 3 m/S 687 mmHg 71%
    13:00 +13°C° 0.4 mm 3 m/S 687 mmHg 72%
    14:00 +13°C° 1.9 mm 3 m/S 686 mmHg 78%
    15:00 +12°C° 1.9 mm 3 m/S 686 mmHg 83%
    16:00 +12°C° 1.9 mm 2 m/S 686 mmHg 89%
    17:00 +12°C° 2.5 mm 2 m/S 686 mmHg 90%
    18:00 +10°C° 2.5 mm 2 m/S 686 mmHg 91%
    19:00 +10°C° 2.5 mm 2 m/S 686 mmHg 92%
    20:00 +10°C° 2.1 mm 2 m/S 686 mmHg 92%
    21:00 +10°C° 2.1 mm 2 m/S 686 mmHg 91%
    22:00 +10°C° 2.1 mm 2 m/S 686 mmHg 91%
    23:00 +10°C° 0.9 mm 2 m/S 686 mmHg 91%

    Morgen, 23 Oktober, Dienstag

    Zeit Temperatur Niederschläge Wind Luftdruck Luftfeuchtigkeit
    00:00 +10°C° 0.9 mm 2 m/S 686 mmHg 90%
    01:00 +10°C° 0.9 mm 2 m/S 686 mmHg 90%
    02:00 +10°C° 0.4 mm 2 m/S 686 mmHg 90%
    03:00 +10°C° 0.4 mm 2 m/S 685 mmHg 90%
    04:00 +10°C° 0.4 mm 2 m/S 685 mmHg 90%
    05:00 +10°C° 0.4 mm 2 m/S 685 mmHg 90%
    06:00 +10°C° 0.4 mm 2 m/S 686 mmHg 89%
    07:00 +10°C° 0.4 mm 2 m/S 686 mmHg 89%
    08:00 +12°C° 0.3 mm 2 m/S 686 mmHg 85%
    09:00 +12°C° 0.3 mm 2 m/S 686 mmHg 82%
    10:00 +13°C° 0.3 mm 2 m/S 687 mmHg 78%
    11:00 +14°C° 0.2 mm 2 m/S 687 mmHg 74%
    12:00 +14°C° 0.2 mm 2 m/S 686 mmHg 70%
    13:00 +15°C° 0.2 mm 2 m/S 686 mmHg 66%
    14:00 +15°C° 0.1 mm 2 m/S 686 mmHg 68%
    15:00 +14°C° 0.1 mm 2 m/S 686 mmHg 69%
    16:00 +14°C° 0.1 mm 2 m/S 686 mmHg 70%
    17:00 +13°C° 0 mm 2 m/S 686 mmHg 74%
    18:00 +12°C° 0 mm 2 m/S 686 mmHg 77%
    19:00 +10°C° 0 mm 2 m/S 686 mmHg 80%
    20:00 +10°C° 0 mm 2 m/S 686 mmHg 80%
    21:00 +9°C° 0 mm 2 m/S 686 mmHg 81%
    22:00 +9°C° 0 mm 2 m/S 686 mmHg 81%
    23:00 +9°C° 0 mm 2 m/S 685 mmHg 81%

    übermorgen, 24 Oktober, Mittwoch

    Zeit Temperatur Niederschläge Wind Luftdruck Luftfeuchtigkeit
    00:00 +9°C° 0 mm 2 m/S 685 mmHg 80%
    01:00 +8°C° 0 mm 2 m/S 685 mmHg 80%
    02:00 +9°C° 0 mm 1 m/S 684 mmHg 80%
    03:00 +9°C° 0 mm 1 m/S 684 mmHg 79%
    04:00 +9°C° 0 mm 1 m/S 684 mmHg 79%
    05:00 +9°C° 0 mm 1 m/S 684 mmHg 78%
    06:00 +10°C° 0 mm 1 m/S 684 mmHg 77%
    07:00 +10°C° 0 mm 1 m/S 684 mmHg 75%
    08:00 +12°C° 0 mm 1 m/S 684 mmHg 67%
    09:00 +15°C° 0 mm 1 m/S 684 mmHg 59%
    10:00 +18°C° 0 mm 1 m/S 685 mmHg 51%
    11:00 +18°C° 0 mm 2 m/S 684 mmHg 48%
    12:00 +18°C° 0 mm 2 m/S 684 mmHg 45%
    13:00 +19°C° 0 mm 2 m/S 683 mmHg 42%
    14:00 +18°C° 0 mm 2 m/S 683 mmHg 46%
    15:00 +17°C° 0 mm 2 m/S 683 mmHg 50%
    16:00 +17°C° 0 mm 2 m/S 682 mmHg 54%
    17:00 +15°C° 0 mm 2 m/S 682 mmHg 57%
    18:00 +14°C° 0 mm 2 m/S 682 mmHg 61%
    19:00 +12°C° 0 mm 2 m/S 682 mmHg 65%
    20:00 +12°C° 0 mm 2 m/S 682 mmHg 65%
    21:00 +10°C° 0 mm 2 m/S 683 mmHg 66%
    22:00 +10°C° 0 mm 2 m/S 683 mmHg 67%
    23:00 +10°C° 0 mm 2 m/S 683 mmHg 68%

    25 Oktober, Donnerstag

    Zeit Temperatur Niederschläge Wind Luftdruck Luftfeuchtigkeit
    00:00 +9°C° 0 mm 2 m/S 684 mmHg 69%
    01:00 +9°C° 0 mm 2 m/S 684 mmHg 70%
    02:00 +8°C° 0 mm 2 m/S 684 mmHg 73%
    03:00 +8°C° 0 mm 2 m/S 684 mmHg 75%
    04:00 +8°C° 0 mm 2 m/S 684 mmHg 78%
    05:00 +8°C° 0 mm 2 m/S 684 mmHg 78%
    06:00 +8°C° 0 mm 2 m/S 685 mmHg 78%
    07:00 +8°C° 0 mm 3 m/S 685 mmHg 79%
    08:00 +9°C° 0 mm 3 m/S 686 mmHg 64%
    09:00 +11°C° 0 mm 3 m/S 687 mmHg 50%
    10:00 +13°C° 0 mm 3 m/S 687 mmHg 36%
    11:00 +13°C° 0 mm 3 m/S 687 mmHg 32%
    12:00 +14°C° 0 mm 3 m/S 687 mmHg 27%
    13:00 +14°C° 0 mm 3 m/S 687 mmHg 23%
    14:00 +15°C° 0 mm 2 m/S 687 mmHg 27%
    15:00 +14°C° 0 mm 2 m/S 687 mmHg 31%
    16:00 +13°C° 0 mm 2 m/S 687 mmHg 35%
    17:00 +12°C° 0 mm 2 m/S 687 mmHg 36%
    18:00 +9°C° 0 mm 2 m/S 688 mmHg 37%
    19:00 +8°C° 0 mm 2 m/S 688 mmHg 38%
    20:00 +9°C° 0 mm 1 m/S 688 mmHg 38%
    21:00 +8°C° 0 mm 1 m/S 688 mmHg 38%
    22:00 +8°C° 0 mm 1 m/S 688 mmHg 38%
    23:00 +8°C° 0 mm 1 m/S 688 mmHg 38%

    26 Oktober, Freitag

    Zeit Temperatur Niederschläge Wind Luftdruck Luftfeuchtigkeit
    00:00 +8°C° 0 mm 1 m/S 688 mmHg 38%
    01:00 +7°C° 0 mm 1 m/S 688 mmHg 38%
    02:00 +7°C° 0 mm 1 m/S 688 mmHg 38%
    03:00 +7°C° 0 mm 1 m/S 688 mmHg 37%
    04:00 +7°C° 0 mm 1 m/S 688 mmHg 37%
    05:00 +8°C° 0 mm 1 m/S 688 mmHg 37%
    06:00 +8°C° 0 mm 1 m/S 689 mmHg 37%
    07:00 +8°C° 0 mm 1 m/S 689 mmHg 37%
    08:00 +11°C° 0 mm 1 m/S 689 mmHg 35%
    09:00 +13°C° 0 mm 1 m/S 690 mmHg 32%
    10:00 +15°C° 0 mm 2 m/S 691 mmHg 29%
    11:00 +16°C° 0 mm 2 m/S 690 mmHg 31%
    12:00 +17°C° 0 mm 2 m/S 690 mmHg 32%
    13:00 +17°C° 0 mm 2 m/S 690 mmHg 33%
    14:00 +16°C° 0 mm 2 m/S 690 mmHg 40%
    15:00 +16°C° 0 mm 2 m/S 690 mmHg 46%
    16:00 +15°C° 0 mm 2 m/S 690 mmHg 52%
    17:00 +13°C° 0 mm 2 m/S 690 mmHg 59%
    18:00 +12°C° 0 mm 1 m/S 689 mmHg 66%
    19:00 +10°C° 0 mm 1 m/S 689 mmHg 72%
    20:00 +10°C° 0 mm 1 m/S 689 mmHg 76%
    21:00 +10°C° 0 mm 1 m/S 690 mmHg 79%
    22:00 +9°C° 0 mm 1 m/S 690 mmHg 82%
    23:00 +9°C° 0 mm 1 m/S 690 mmHg 84%

    27 Oktober, Samstag

    Zeit Temperatur Niederschläge Wind Luftdruck Luftfeuchtigkeit
    00:00 +9°C° 0 mm 1 m/S 689 mmHg 86%
    01:00 +8°C° 0 mm 2 m/S 689 mmHg 88%
    02:00 +8°C° 0 mm 2 m/S 689 mmHg 87%
    03:00 +8°C° 0 mm 2 m/S 689 mmHg 85%
    04:00 +8°C° 0 mm 2 m/S 689 mmHg 84%
    05:00 +8°C° 0 mm 2 m/S 689 mmHg 81%
    06:00 +9°C° 0 mm 2 m/S 689 mmHg 78%
    07:00 +9°C° 0 mm 2 m/S 689 mmHg 74%
    08:00 +12°C° 0 mm 2 m/S 689 mmHg 71%
    09:00 +14°C° 0 mm 2 m/S 690 mmHg 68%
    10:00 +16°C° 0 mm 2 m/S 690 mmHg 65%
    11:00 +17°C° 0 mm 2 m/S 690 mmHg 64%
    12:00 +17°C° 0 mm 2 m/S 689 mmHg 63%
    13:00 +18°C° 0 mm 3 m/S 689 mmHg 61%
    14:00 +17°C° 0 mm 3 m/S 689 mmHg 66%
    15:00 +16°C° 0 mm 2 m/S 689 mmHg 70%
    16:00 +15°C° 0 mm 2 m/S 688 mmHg 74%
    17:00 +14°C° 0 mm 2 m/S 688 mmHg 80%
    18:00 +13°C° 0 mm 2 m/S 688 mmHg 85%
    19:00 +12°C° 0 mm 2 m/S 688 mmHg 91%
    20:00 +12°C° 0 mm 2 m/S 688 mmHg 91%
    21:00 +10°C° 0 mm 2 m/S 688 mmHg 91%
    22:00 +10°C° 0 mm 2 m/S 688 mmHg 91%
    23:00 +10°C° 0 mm 2 m/S 688 mmHg 91%

    28 Oktober, Sonntag

    Zeit Temperatur Niederschläge Wind Luftdruck Luftfeuchtigkeit
    00:00 +9°C° 0 mm 2 m/S 688 mmHg 90%
    01:00 +9°C° 0 mm 2 m/S 688 mmHg 90%
    02:00 +9°C° 0 mm 2 m/S 688 mmHg 89%
    03:00 +9°C° 0 mm 2 m/S 688 mmHg 88%
    04:00 +8°C° 0 mm 2 m/S 687 mmHg 87%
    05:00 +9°C° 0 mm 2 m/S 688 mmHg 85%
    06:00 +9°C° 0 mm 2 m/S 688 mmHg 83%
    07:00 +9°C° 0 mm 2 m/S 688 mmHg 81%
    08:00 +12°C° 0 mm 2 m/S 688 mmHg 73%
    09:00 +13°C° 0 mm 3 m/S 689 mmHg 65%
    10:00 +16°C° 0 mm 3 m/S 689 mmHg 58%
    11:00 +17°C° 0 mm 3 m/S 689 mmHg 56%
    12:00 +17°C° 0 mm 3 m/S 689 mmHg 54%
    13:00 +18°C° 0 mm 3 m/S 689 mmHg 52%
    14:00 +17°C° 0 mm 3 m/S 688 mmHg 57%
    15:00 +16°C° 0 mm 3 m/S 688 mmHg 62%
    16:00 +14°C° 0 mm 3 m/S 688 mmHg 66%
    17:00 +13°C° 0 mm 3 m/S 688 mmHg 71%
    18:00 +12°C° 0 mm 3 m/S 688 mmHg 76%
    19:00 +12°C° 0 mm 2 m/S 688 mmHg 81%
    20:00 +10°C° 0 mm 2 m/S 688 mmHg 79%
    21:00 +10°C° 0 mm 2 m/S 688 mmHg 76%
    22:00 +10°C° 0 mm 2 m/S 688 mmHg 74%
    23:00 +10°C° 0 mm 2 m/S 688 mmHg 74%
    Mehr zeigen